Regional Weather Roundup
Issued by NWS

Home | Current Version | Previous Version | Graphics & Text | Print | Product List | Glossary On
Versions: 1 2 3 4 5 6 7 8 9 10 11 12 13 14 15 16 17 18 19 20 21 22 23 24 25 26 27 28 29 30 31 32 33 34 35 36 37 38 39 40 41 42 43 44 45 46 47 48 49 50
000
ASUS43 KFSD 212010
RWRSD

WEATHER ROUNDUP FOR SOUTH DAKOTA
NATIONAL WEATHER SERVICE SIOUX FALLS SD
300 PM CDT SAT APR 21 2018

NOTE: "FAIR" INDICATES FEW OR NO CLOUDS BELOW 12,000 FEET WITH NO
SIGNIFICANT WEATHER AND/OR OBSTRUCTIONS TO VISIBILITY.


SDZ001>005-009-010-012>017-212100-
NORTHWEST AND NORTH CENTRAL SOUTH DAKOTA

CITY           SKY/WX    TMP DP  RH WIND       PRES   REMARKS
BUFFALO          N/A     61  34  36 S20G31    30.03
FAITH            N/A     51  40  65 S25       30.19F
MOBRIDGE       MOSUNNY   58  38  47 S24G30    30.22F
$$

SDZ012>016-024>037-041>051-057-063-072>074-212100-
SOUTHWEST AND SOUTH CENTRAL SOUTH DAKOTA

CITY           SKY/WX    TMP DP  RH WIND       PRES   REMARKS
RAPID CTY ARPT SUNNY     54  37  52 S17G24    30.16F
PIERRE         CLOUDY    50  41  71 SE15      30.27F
CUSTER         CLOUDY    46  31  55 S5        30.14F
ELLSWORTH AFB  SUNNY    N/A N/A N/A S21G31    30.16S
PHILIP         CLOUDY    48  40  73 SE17      30.23F
PINE RIDGE     CLOUDY    41  39  93 S3        30.22F
SPEARFISH      FAIR      59  36  41 NW8       30.09F
WINNER         FAIR      47  37  68 SE8       30.28F
$$

SDZ004>011-016>023-039-040-212100-
NORTHEAST SOUTH DAKOTA

CITY           SKY/WX    TMP DP  RH WIND       PRES   REMARKS
ABERDEEN       CLOUDY    59  33  37 S17       30.30F
WATERTOWN      CLOUDY    53  35  50 S13       30.32F
BROOKINGS      CLOUDY    51  37  58 SE9       30.33F
SISSETON         N/A     59  39  47 S12G20    30.30F
$$

SDZ017-020-022-023-036>040-048>070-212100-
SOUTHEAST SOUTH DAKOTA

CITY           SKY/WX    TMP DP  RH WIND       PRES   REMARKS
SIOUX FALLS    CLOUDY    49  37  63 NE10      30.32F
HURON          CLOUDY    46  35  65 S3        30.33S
CHAMBERLAIN    CLOUDY    47  44  88 E5        30.30F
MITCHELL       CLOUDY    45  36  70 NE6       30.32F
YANKTON        CLOUDY    50  35  56 NE8       30.29F
$$

ABBREVIATIONS USED IN REMARKS
   TC - TEMPERATURE IN CELSIUS
  WCI - WIND CHILL INDEX
   HX - HEAT INDEX
  VSB - VISIBILITY




USA.gov is the U.S. government's official web portal to all federal, state and local government web resources and services.